• In Uzbekistan
  • List of Countries
  • For 7 days
  • Water Temperature
  • Satellite Maps
  • Weather Map
  • Weather Widgets
  • user-avatar
    Login

    Hourly Weather Benguela

    Today, 30 April, Sunday

    Time Temperature Precipitation Wind Pressure Humidity
    00:00 +28°C° 0 mm 2 mps 759 mmHg 66%
    01:00 +28°C° 0 mm 2 mps 759 mmHg 66%
    02:00 +28°C° 0 mm 2 mps 759 mmHg 66%
    03:00 +27°C° 0 mm 2 mps 759 mmHg 65%
    04:00 +27°C° 0 mm 1 mps 759 mmHg 65%
    05:00 +28°C° 0 mm 1 mps 759 mmHg 62%
    06:00 +28°C° 0 mm 1 mps 759 mmHg 59%
    07:00 +29°C° 0 mm 1 mps 759 mmHg 56%
    08:00 +32°C° 0 mm 2 mps 759 mmHg 49%
    09:00 +35°C° 0 mm 2 mps 759 mmHg 41%
    10:00 +38°C° 0 mm 2 mps 760 mmHg 33%
    11:00 +39°C° 0 mm 3 mps 759 mmHg 31%
    12:00 +41°C° 0 mm 4 mps 758 mmHg 28%
    13:00 +42°C° 0 mm 4 mps 758 mmHg 26%
    14:00 +41°C° 0 mm 5 mps 757 mmHg 28%
    15:00 +41°C° 0 mm 5 mps 756 mmHg 29%
    16:00 +40°C° 0 mm 6 mps 756 mmHg 31%
    17:00 +36°C° 0 mm 5 mps 756 mmHg 40%
    18:00 +33°C° 0 mm 4 mps 757 mmHg 50%
    19:00 +29°C° 0 mm 3 mps 757 mmHg 59%
    20:00 +29°C° 0 mm 2 mps 758 mmHg 62%
    21:00 +28°C° 0 mm 2 mps 758 mmHg 65%
    22:00 +28°C° 0 mm 1 mps 759 mmHg 68%
    23:00 +27°C° 0 mm 1 mps 759 mmHg 67%

    Tomorrow, 1 May, Monday

    Time Temperature Precipitation Wind Pressure Humidity
    00:00 +27°C° 0 mm 1 mps 759 mmHg 65%
    01:00 +27°C° 0 mm 1 mps 759 mmHg 64%
    02:00 +27°C° 0 mm 1 mps 759 mmHg 61%
    03:00 +27°C° 0 mm 1 mps 758 mmHg 58%
    04:00 +27°C° 0 mm 1 mps 758 mmHg 55%
    05:00 +27°C° 0 mm 1 mps 758 mmHg 52%
    06:00 +28°C° 0 mm 1 mps 759 mmHg 50%
    07:00 +28°C° 0 mm 2 mps 759 mmHg 48%
    08:00 +31°C° 0 mm 2 mps 759 mmHg 41%
    09:00 +35°C° 0 mm 2 mps 759 mmHg 35%
    10:00 +38°C° 0 mm 2 mps 759 mmHg 29%
    11:00 +39°C° 0 mm 3 mps 758 mmHg 27%
    12:00 +40°C° 0 mm 3 mps 758 mmHg 24%
    13:00 +42°C° 0 mm 4 mps 757 mmHg 21%
    14:00 +41°C° 0 mm 4 mps 757 mmHg 23%
    15:00 +41°C° 0 mm 5 mps 756 mmHg 24%
    16:00 +40°C° 0 mm 5 mps 756 mmHg 26%
    17:00 +36°C° 0 mm 4 mps 756 mmHg 37%
    18:00 +33°C° 0 mm 3 mps 756 mmHg 48%
    19:00 +29°C° 0 mm 3 mps 757 mmHg 59%
    20:00 +28°C° 0 mm 2 mps 757 mmHg 62%
    21:00 +28°C° 0 mm 2 mps 758 mmHg 65%
    22:00 +27°C° 0 mm 2 mps 759 mmHg 69%
    23:00 +27°C° 0 mm 2 mps 758 mmHg 66%

    Day after tomorrow, 2 May, Tuesday

    Time Temperature Precipitation Wind Pressure Humidity
    00:00 +27°C° 0 mm 2 mps 758 mmHg 63%
    01:00 +27°C° 0 mm 2 mps 758 mmHg 61%
    02:00 +27°C° 0 mm 2 mps 758 mmHg 58%
    03:00 +27°C° 0 mm 1 mps 758 mmHg 56%
    04:00 +27°C° 0 mm 1 mps 757 mmHg 53%
    05:00 +27°C° 0 mm 1 mps 758 mmHg 51%
    06:00 +28°C° 0 mm 2 mps 758 mmHg 49%
    07:00 +28°C° 0 mm 2 mps 758 mmHg 47%
    08:00 +31°C° 0 mm 2 mps 759 mmHg 41%
    09:00 +35°C° 0 mm 2 mps 759 mmHg 34%
    10:00 +37°C° 0 mm 2 mps 759 mmHg 28%
    11:00 +38°C° 0 mm 2 mps 758 mmHg 26%
    12:00 +39°C° 0 mm 3 mps 757 mmHg 24%
    13:00 +41°C° 0 mm 4 mps 756 mmHg 23%
    14:00 +41°C° 0 mm 4 mps 756 mmHg 24%
    15:00 +41°C° 0 mm 4 mps 756 mmHg 25%
    16:00 +40°C° 0 mm 5 mps 755 mmHg 27%
    17:00 +36°C° 0 mm 4 mps 756 mmHg 36%
    18:00 +33°C° 0 mm 3 mps 756 mmHg 46%
    19:00 +29°C° 0 mm 2 mps 756 mmHg 56%
    20:00 +29°C° 0 mm 2 mps 757 mmHg 58%
    21:00 +28°C° 0 mm 2 mps 758 mmHg 59%
    22:00 +27°C° 0 mm 1 mps 758 mmHg 61%
    23:00 +27°C° 0 mm 1 mps 758 mmHg 60%

    3 May, Wednesday

    Time Temperature Precipitation Wind Pressure Humidity
    00:00 +27°C° 0 mm 1 mps 758 mmHg 59%
    01:00 +27°C° 0 mm 2 mps 758 mmHg 57%
    02:00 +27°C° 0 mm 1 mps 758 mmHg 57%
    03:00 +27°C° 0 mm 1 mps 757 mmHg 57%
    04:00 +26°C° 0 mm 1 mps 757 mmHg 57%
    05:00 +27°C° 0 mm 1 mps 758 mmHg 54%
    06:00 +28°C° 0 mm 1 mps 758 mmHg 51%
    07:00 +29°C° 0 mm 1 mps 758 mmHg 48%
    08:00 +31°C° 0 mm 2 mps 758 mmHg 41%
    09:00 +35°C° 0 mm 2 mps 759 mmHg 34%
    10:00 +38°C° 0 mm 2 mps 759 mmHg 27%
    11:00 +38°C° 0 mm 2 mps 758 mmHg 25%
    12:00 +39°C° 0 mm 3 mps 757 mmHg 23%
    13:00 +41°C° 0 mm 4 mps 756 mmHg 22%
    14:00 +41°C° 0 mm 4 mps 756 mmHg 25%
    15:00 +40°C° 0 mm 5 mps 756 mmHg 28%
    16:00 +39°C° 0 mm 5 mps 755 mmHg 31%
    17:00 +35°C° 0 mm 4 mps 756 mmHg 41%
    18:00 +31°C° 0 mm 3 mps 756 mmHg 51%
    19:00 +28°C° 0 mm 2 mps 757 mmHg 61%
    20:00 +28°C° 0 mm 2 mps 757 mmHg 63%
    21:00 +27°C° 0 mm 2 mps 757 mmHg 65%
    22:00 +27°C° 0 mm 1 mps 758 mmHg 66%
    23:00 +26°C° 0 mm 1 mps 758 mmHg 65%

    4 May, Thursday

    Time Temperature Precipitation Wind Pressure Humidity
    00:00 +26°C° 0 mm 1 mps 758 mmHg 65%
    01:00 +26°C° 0 mm 2 mps 757 mmHg 64%
    02:00 +26°C° 0 mm 2 mps 757 mmHg 63%
    03:00 +26°C° 0 mm 2 mps 757 mmHg 62%
    04:00 +26°C° 0 mm 2 mps 757 mmHg 62%
    05:00 +27°C° 0 mm 2 mps 757 mmHg 59%
    06:00 +28°C° 0 mm 2 mps 758 mmHg 56%
    07:00 +28°C° 0 mm 2 mps 758 mmHg 53%
    08:00 +31°C° 0 mm 2 mps 758 mmHg 44%
    09:00 +35°C° 0 mm 2 mps 758 mmHg 36%
    10:00 +38°C° 0 mm 2 mps 759 mmHg 27%
    11:00 +38°C° 0 mm 2 mps 758 mmHg 26%
    12:00 +39°C° 0 mm 3 mps 757 mmHg 25%
    13:00 +41°C° 0 mm 4 mps 756 mmHg 23%
    14:00 +40°C° 0 mm 4 mps 756 mmHg 26%
    15:00 +40°C° 0 mm 5 mps 755 mmHg 28%
    16:00 +39°C° 0 mm 5 mps 755 mmHg 31%
    17:00 +35°C° 0 mm 4 mps 755 mmHg 40%
    18:00 +31°C° 0 mm 3 mps 756 mmHg 50%
    19:00 +28°C° 0 mm 3 mps 756 mmHg 59%
    20:00 +28°C° 0 mm 2 mps 757 mmHg 61%
    21:00 +27°C° 0 mm 2 mps 757 mmHg 63%
    22:00 +27°C° 0 mm 2 mps 757 mmHg 64%
    23:00 +27°C° 0 mm 2 mps 757 mmHg 63%

    5 May, Friday

    Time Temperature Precipitation Wind Pressure Humidity
    00:00 +27°C° 0 mm 2 mps 757 mmHg 63%
    01:00 +26°C° 0 mm 2 mps 757 mmHg 62%
    02:00 +26°C° 0 mm 2 mps 757 mmHg 61%
    03:00 +26°C° 0 mm 2 mps 757 mmHg 60%
    04:00 +26°C° 0 mm 2 mps 757 mmHg 59%
    05:00 +27°C° 0 mm 2 mps 757 mmHg 56%
    06:00 +28°C° 0 mm 2 mps 757 mmHg 52%
    07:00 +29°C° 0 mm 2 mps 758 mmHg 49%
    08:00 +31°C° 0 mm 2 mps 758 mmHg 42%
    09:00 +35°C° 0 mm 2 mps 758 mmHg 35%
    10:00 +38°C° 0 mm 2 mps 758 mmHg 28%
    11:00 +38°C° 0 mm 2 mps 757 mmHg 27%
    12:00 +39°C° 0 mm 3 mps 757 mmHg 26%
    13:00 +41°C° 0 mm 4 mps 756 mmHg 25%
    14:00 +41°C° 0 mm 4 mps 755 mmHg 27%
    15:00 +40°C° 0 mm 4 mps 755 mmHg 29%
    16:00 +39°C° 0 mm 5 mps 755 mmHg 31%
    17:00 +36°C° 0 mm 4 mps 755 mmHg 41%
    18:00 +33°C° 0 mm 3 mps 756 mmHg 50%
    19:00 +29°C° 0 mm 2 mps 756 mmHg 59%
    20:00 +28°C° 0 mm 2 mps 757 mmHg 61%
    21:00 +28°C° 0 mm 2 mps 757 mmHg 62%
    22:00 +28°C° 0 mm 1 mps 757 mmHg 63%
    23:00 +28°C° 0 mm 1 mps 757 mmHg 61%
    Show more